Weather History for KPNS - April, 2013

Change the Weather History Date:

Friday, April 12, 2013

  Actual Average Record
Temperature  
Mean Temperature 66 °F 66 °F  
Max Temperature 76 °F 75 °F 89 °F (1963)
Min Temperature 56 °F 57 °F 38 °F (1918)
Degree Days  
Heating Degree Days 0 2  
Month to date heating degree days 17 32  
Since 1 July heating degree days 1155 1516  
Cooling Degree Days 1 3  
Month to date cooling degree days 32 27  
Year to date cooling degree days 87 74  
Growing Degree Days 15 (Base 50)    
Moisture  
Dew Point 50 °F    
Average Humidity 65    
Maximum Humidity 97    
Minimum Humidity 33    
Precipitation  
Precipitation 0.00 in 0.16 in 4.01 in (2005)
Month to date precipitation 3.11 1.87  
Year to date precipitation 18.93 17.37  
Snow  
Snow 0.00 in 0.00 in - ()
Month to date snowfall 0.0 0.0  
Since 1 July snowfall 0.0 0.0  
Snow Depth 0.00 in    
Sea Level Pressure  
Sea Level Pressure 29.88 in    
Wind  
Wind Speed 10 mph (NNW)    
Max Wind Speed 21 mph    
Max Gust Speed 26 mph    
Visibility 10 miles    
Events      
T = Trace of Precipitation, MM = Missing Value Source: NWS Daily Summary

Daily Weather History Graph

Daily Weather History Graph

Search for Another Location

Airport or City:

Trip Planner

Search our weather history database for the weather conditions in past years. The results will help you decide how hot, cold, wet, or windy it might be!

Date:

Astronomy

Apr. 12, 2013 Rise Set
Actual Time 6:24 AM CDT 7:14 PM CDT
Civil Twilight 6:00 AM CDT 7:39 PM CDT
Nautical Twilight 5:31 AM CDT 8:08 PM CDT
Astronomical Twilight 5:01 AM CDT 8:38 PM CDT
Moon 7:43 AM CDT (4/12) 9:34 PM CDT (4/12)
Length of Visible Light 13h 39m
Length of Day
12h 50m
Waxing Crescent, 5% of the Moon is Illuminated
Apr 12
Waxing Crescent
Apr 18
First Quarter
Apr 25
Full
May 2
Last Quarter
May 9
New

Hourly Weather History & Observations

Time (CDT) Temp. Dew Point Humidity Pressure Visibility Wind Dir Wind Speed Gust Speed Precip Events Conditions
12:53 AM 63.0 °F 61.0 °F 93% 29.78 in 10.0 mi NNW 10.4 mph - N/A   Overcast
1:33 AM 62.6 °F 60.8 °F 94% 29.78 in 10.0 mi NNW 11.5 mph - N/A   Overcast
1:53 AM 61.0 °F 59.0 °F 93% 29.77 in 10.0 mi NNW 13.8 mph - N/A   Overcast
2:53 AM 60.1 °F 57.9 °F 93% 29.78 in 10.0 mi North 11.5 mph - N/A   Overcast
3:53 AM 60.1 °F 55.9 °F 86% 29.80 in 10.0 mi NNW 13.8 mph - N/A   Overcast
4:53 AM 57.9 °F 55.0 °F 90% 29.81 in 10.0 mi NNW 11.5 mph - N/A   Overcast
5:53 AM 57.0 °F 54.0 °F 89% 29.83 in 10.0 mi North 17.3 mph - N/A   Overcast
6:21 AM 55.4 °F 51.8 °F 88% 29.85 in 10.0 mi NNW 12.7 mph - N/A   Overcast
6:53 AM 57.0 °F 52.0 °F 83% 29.87 in 10.0 mi NNW 11.5 mph - N/A   Overcast
7:53 AM 55.9 °F 51.1 °F 84% 29.90 in 10.0 mi NNW 12.7 mph 24.2 mph N/A   Overcast
8:46 AM 57.2 °F 48.2 °F 72% 29.89 in 10.0 mi NNW 17.3 mph - N/A   Partly Cloudy
8:53 AM 57.0 °F 48.0 °F 72% 29.91 in 10.0 mi North 18.4 mph 24.2 mph N/A   Partly Cloudy
9:53 AM 61.0 °F 48.0 °F 62% 29.92 in 10.0 mi North 16.1 mph 23.0 mph N/A   Clear
10:53 AM 64.9 °F 48.0 °F 54% 29.93 in 10.0 mi North 9.2 mph 19.6 mph N/A   Clear
11:53 AM 68.0 °F 46.0 °F 45% 29.93 in 10.0 mi NNW 12.7 mph 23.0 mph N/A   Clear
12:53 PM 71.1 °F 45.0 °F 39% 29.92 in 10.0 mi NNW 13.8 mph 23.0 mph N/A   Clear
1:53 PM 73.0 °F 45.0 °F 37% 29.92 in 10.0 mi NNE 8.1 mph 18.4 mph N/A   Clear
2:53 PM 73.9 °F 45.0 °F 35% 29.91 in 10.0 mi NNW 11.5 mph - N/A   Clear
3:53 PM 75.0 °F 44.1 °F 33% 29.90 in 10.0 mi North 10.4 mph 19.6 mph N/A   Clear
4:53 PM 73.9 °F 43.0 °F 33% 29.90 in 10.0 mi NNW 13.8 mph - N/A   Clear
5:53 PM 73.0 °F 44.1 °F 35% 29.90 in 10.0 mi NE 4.6 mph - N/A   Clear
6:53 PM 69.1 °F 46.0 °F 44% 29.90 in 10.0 mi NW 6.9 mph - N/A   Clear
7:53 PM 66.9 °F 46.0 °F 47% 29.91 in 10.0 mi North 4.6 mph - N/A   Clear
8:53 PM 64.0 °F 46.9 °F 54% 29.94 in 10.0 mi North 3.5 mph - N/A   Clear
9:53 PM 62.1 °F 46.9 °F 58% 29.97 in 10.0 mi NNE 3.5 mph - N/A   Clear
10:53 PM 61.0 °F 48.9 °F 64% 29.98 in 10.0 mi NNE 3.5 mph - N/A   Clear
11:53 PM 57.9 °F 51.1 °F 78% 29.99 in 10.0 mi North 3.5 mph - N/A   Clear